Wind_Speed
18 18 17 17 16 16 15 16 17 17 17 17 17 15 15 14 13 13 12 11 11 11 11 11 9 7 4 2 1 1 2 3 3 4 5 5 5 5 5 6 6 6 4
19 19 17 16 15 15 14 14 15 15 16 16 15 15 15 14 13 12 12 11 11 10 10 9 8 7 5 2 1 1 2 2 3 4 5 6 6 6 6 6 6 6 5
19 19 18 16 15 14 13 13 13 13 13 13 13 13 13 13 13 12 11 11 10 10 9 8 7 6 4 3 2 2 2 2 3 4 6 7 8 8 8 7 6 5 5
18 18 17 16 15 14 13 12 12 11 11 11 11 11 11 11 11 11 11 10 9 8 8 8 6 5 4 4 3 3 3 3 4 5 6 8 9 10 9 8 7 7 7
16 15 15 14 13 12 11 10 10 9 9 9 9 9 9 10 10 10 10 9 7 6 6 7 6 6 5 5 5 5 5 5 5 6 7 8 9 10 10 10 9 9 8
12 11 11 11 11 10 9 9 8 8 8 8 8 8 8 8 8 8 8 7 6 5 4 5 5 6 6 6 7 7 7 7 7 7 8 9 10 11 11 12 11 11 11
7 6 6 7 7 8 8 8 8 7 7 6 6 6 6 6 6 6 6 6 5 4 3 4 4 5 5 7 8 9 9 9 9 10 9 9 10 11 12 12 12 12 12
4 3 3 4 5 5 6 7 7 7 7 6 5 5 5 5 6 6 6 5 4 4 3 4 4 5 6 7 8 9 11 11 11 11 12 12 12 12 13 12 12 12 13
3 1 1 3 4 5 6 7 7 8 9 9 8 8 8 8 8 7 7 7 6 6 5 5 6 6 7 7 8 9 11 13 13 12 13 13 13 14 14 13 13 13 13
4 3 3 4 5 6 7 7 8 9 10 10 11 11 11 11 10 10 9 8 8 8 8 7 7 7 8 8 8 9 11 13 14 13 13 13 14 15 15 15 15 16 16
6 5 4 6 7 8 8 9 9 9 10 11 11 12 13 14 13 12 11 10 9 9 9 9 9 9 9 9 10 10 11 13 14 14 14 14 15 15 15 15 16 17 18
9 8 7 8 10 11 11 10 10 10 11 11 12 12 13 14 14 13 12 12 11 10 10 10 10 10 11 11 11 11 12 13 15 16 17 17 17 17 16 16 17 18 20
13 13 12 12 13 14 14 13 12 11 11 12 12 13 13 14 14 14 14 14 13 12 12 12 12 12 13 13 13 12 12 13 15 17 18 19 20 20 19 18 18 20 21
18 18 18 18 17 17 16 15 14 14 14 14 14 13 14 15 15 16 17 17 16 16 15 14 14 14 15 15 14 14 14 14 14 16 18 19 20 21 21 21 21 22 23
21 21 20 20 20 19 19 18 17 17 17 16 16 15 15 16 18 19 20 20 20 19 18 16 16 16 16 16 15 15 15 16 16 17 18 19 21 22 22 22 22 23 24
22 22 22 22 22 22 22 22 21 21 20 20 19 18 17 18 20 21 21 21 22 21 20 18 17 17 17 17 16 16 17 18 18 19 20 20 21 21 21 22 23 23 24
24 24 24 24 25 25 25 25 25 25 25 24 23 22 21 21 21 22 22 23 23 22 21 19 19 19 18 18 18 18 19 20 21 22 22 22 22 22 22 22 22 23 24
27 27 27 27 28 29 29 30 30 30 29 29 29 27 25 24 24 24 23 24 25 24 24 22 21 20 19 19 19 20 21 22 23 24 24 23 22 22 22 21 22 22 23
31 30 30 30 31 33 34 34 34 34 35 35 34 32 30 27 26 26 26 26 26 27 26 25 24 23 22 21 21 21 22 23 23 24 23 23 23 22 22 22 22 22 23
34 33 33 34 35 36 37 36 37 38 40 40 39 37 34 31 30 30 28 28 27 28 27 27 27 26 25 24 23 23 23 22 22 21 22 23 23 23 22 22 22 23 24
37 36 36 37 38 38 39 40 41 42 44 44 43 41 38 35 33 31 30 30 30 30 29 29 29 28 27 26 25 24 24 22 21 21 21 22 23 23 23 22 23 23 24
36 36 37 38 39 40 42 44 44 44 45 43 43 42 39 36 34 32 31 31 31 32 32 31 30 29 28 27 26 25 24 24 22 21 22 22 23 23 23 23 24 24 25
36 36 38 39 42 43 45 46 46 46 47 48 45 44 41 38 36 34 34 33 33 33 33 33 31 29 28 28 27 25 24 25 25 23 23 23 23 23 24 25 25 25 25
37 38 40 42 43 45 46 47 47 47 48 48 47 44 43 43 40 37 35 34 33 34 33 33 31 30 29 29 28 26 26 26 25 25 25 24 24 24 25 26 26 26 25
40 41 42 44 45 46 48 49 49 49 50 50 50 48 46 43 41 38 37 35 33 33 33 31 30 30 30 29 29 28 27 27 27 27 27 27 26 25 26 27 27 26 25
42 43 45 46 47 48 49 50 50 51 51 51 50 48 45 41 38 36 35 34 33 32 32 32 31 30 31 31 31 30 29 29 30 29 28 29 28 27 27 28 27 26 24
Wind_Direction
95 93 91 91 93 94 95 95 95 94 93 92 88 84 80 78 77 75 72 68 62 57 57 63 69 76 88 112 196 265 292 299 296 296 297 298 300 306 316 320 315 305 297
90 90 90 90 91 92 94 94 95 95 94 92 89 84 78 74 73 73 71 66 61 56 53 57 63 70 75 70 2 318 315 312 302 295 296 298 298 300 305 309 310 301 278
83 85 86 86 86 87 88 89 89 90 89 88 86 82 77 71 68 68 68 64 59 54 48 45 45 49 55 52 21 345 328 315 305 299 299 301 302 304 305 305 305 298 280
79 80 81 80 80 79 80 81 81 82 82 82 82 80 75 69 64 63 64 63 59 53 47 41 33 25 18 15 6 349 333 317 304 298 298 300 303 307 307 305 302 296 287
79 75 73 72 71 70 69 68 69 70 71 72 71 69 65 61 58 57 58 60 58 53 45 37 29 16 360 348 344 342 334 323 313 306 303 305 308 310 310 306 302 297 290
83 70 63 60 57 55 54 53 51 52 54 56 56 55 52 50 51 50 50 52 49 43 35 25 16 8 356 342 334 332 329 326 322 319 316 315 315 314 313 308 302 296 292
87 64 49 46 41 35 33 31 28 26 29 33 36 36 34 30 29 29 30 33 35 29 18 5 355 350 346 342 335 330 325 321 321 321 322 320 320 318 319 316 307 297 291
107 70 35 24 17 10 7 7 4 358 353 350 351 353 356 355 352 352 352 352 353 355 350 339 332 331 332 333 332 330 329 325 324 322 321 321 320 317 316 318 316 305 292
164 174 328 342 346 344 344 345 344 340 334 326 318 315 316 319 321 322 321 319 319 318 320 322 321 322 324 327 327 325 324 324 326 326 320 318 315 314 313 310 312 310 300
203 228 270 304 314 319 324 327 329 329 327 321 312 304 300 299 302 304 304 302 301 304 310 313 313 312 314 318 319 319 316 316 321 324 319 314 310 309 308 307 305 304 302
226 243 274 296 303 305 306 310 316 320 322 321 315 307 301 296 295 296 296 294 293 295 302 307 305 301 303 308 311 311 309 309 312 314 314 312 309 306 303 302 301 299 297
243 257 276 291 297 300 298 298 304 311 316 317 314 311 307 302 296 295 295 292 287 287 290 293 296 296 296 297 300 303 305 305 305 306 307 308 307 303 298 296 296 297 297
260 265 275 286 295 299 297 294 296 302 309 312 311 309 306 303 298 295 295 293 288 284 285 287 289 292 292 291 291 293 297 301 302 302 304 304 303 301 296 292 292 295 296
268 272 277 285 292 297 297 294 295 299 303 306 306 305 304 300 296 294 295 294 292 288 284 283 285 287 287 287 286 286 288 293 298 300 303 303 302 301 298 293 292 294 297
268 272 278 284 289 292 292 292 292 298 300 301 301 300 298 296 293 292 293 293 292 290 288 285 285 287 286 287 286 284 284 288 294 301 305 304 302 300 298 296 294 294 297
269 273 275 279 283 284 285 285 286 290 293 296 297 296 292 292 292 291 291 290 288 287 286 286 288 289 288 288 289 287 285 287 292 298 302 303 303 300 297 295 295 296 297
268 270 272 275 277 278 279 279 280 282 286 289 290 290 289 289 290 286 285 285 284 284 282 283 286 287 286 286 287 288 288 289 293 296 299 300 302 301 297 294 293 294 295
264 265 268 270 272 273 274 275 277 280 282 284 284 284 284 284 284 283 281 280 281 281 280 280 281 283 284 284 285 288 291 292 294 296 298 299 300 300 297 294 292 293 294
260 262 264 266 267 269 272 274 277 279 280 280 280 281 281 281 281 280 280 279 279 279 278 278 279 281 282 283 286 289 292 293 295 297 299 301 302 301 298 295 293 293 295
259 260 262 262 264 266 270 273 275 276 277 277 278 278 277 276 277 277 278 279 280 279 278 277 277 278 281 284 287 289 291 293 295 298 301 304 304 303 299 295 293 293 295
260 260 259 259 261 264 267 270 272 274 276 277 277 276 275 274 273 273 275 277 279 280 279 279 276 275 278 282 285 287 288 289 291 295 300 303 303 302 299 295 293 292 293
260 259 258 259 260 262 265 268 271 274 277 279 280 279 275 273 271 269 272 276 278 280 281 280 277 274 276 280 282 284 285 286 286 290 296 299 299 299 298 296 294 292 291
258 258 259 260 261 263 265 267 269 271 275 278 280 282 279 276 273 271 273 274 276 278 280 278 275 272 273 277 279 280 282 285 287 289 292 294 295 295 296 297 295 294 291
255 256 258 259 261 263 264 265 267 270 273 275 279 281 280 278 273 270 272 272 274 277 277 275 272 271 273 274 276 276 278 281 286 289 291 292 291 292 293 295 296 295 292
254 255 257 258 259 261 263 264 266 268 271 273 276 279 280 279 274 268 267 268 271 273 273 271 268 269 271 272 274 275 277 279 284 287 289 289 288 287 290 293 295 294 291
254 255 256 257 258 260 262 264 267 269 271 273 276 278 280 277 271 265 262 262 266 268 267 268 268 268 270 272 273 275 278 280 283 285 286 285 284 284 286 290 293 292 289
Height
5923 5923 5924 5925 5925 5925 5924 5924 5923 5922 5922 5921 5921 5920 5920 5919 5918 5917 5916 5915 5914 5913 5912 5911 5910 5909 5909 5909 5908 5908 5908 5907 5907 5906 5906 5905 5905 5904 5904 5903 5903 5903 5903
5926 5926 5926 5927 5927 5927 5927 5927 5926 5925 5924 5923 5922 5922 5921 5921 5920 5919 5918 5917 5916 5915 5914 5913 5912 5911 5910 5909 5909 5908 5908 5907 5907 5906 5906 5905 5905 5904 5903 5902 5902 5902 5902
5928 5928 5929 5929 5930 5930 5929 5929 5928 5927 5926 5925 5924 5923 5923 5922 5922 5921 5919 5918 5917 5916 5915 5914 5913 5912 5911 5910 5909 5909 5908 5907 5907 5906 5906 5905 5905 5904 5903 5902 5901 5901 5900
5931 5931 5931 5931 5931 5931 5931 5930 5930 5929 5928 5927 5926 5925 5924 5923 5923 5922 5921 5919 5918 5917 5916 5916 5915 5914 5912 5911 5910 5909 5908 5907 5907 5906 5905 5905 5904 5903 5902 5901 5900 5900 5899
5933 5933 5933 5933 5933 5933 5932 5932 5931 5930 5929 5928 5927 5926 5925 5924 5923 5922 5921 5920 5919 5918 5917 5916 5915 5914 5913 5912 5910 5910 5909 5908 5907 5906 5905 5904 5903 5903 5902 5901 5900 5899 5898
5935 5935 5935 5934 5934 5934 5933 5932 5932 5931 5930 5929 5928 5927 5926 5925 5924 5923 5922 5921 5920 5919 5918 5917 5916 5914 5913 5912 5911 5910 5909 5908 5907 5906 5905 5904 5903 5902 5901 5900 5899 5898 5897
5935 5935 5936 5935 5935 5935 5934 5933 5933 5932 5931 5930 5929 5928 5927 5926 5925 5923 5922 5921 5920 5919 5918 5917 5916 5915 5914 5912 5911 5910 5908 5907 5906 5906 5905 5903 5902 5901 5900 5899 5898 5897 5896
5935 5935 5935 5935 5935 5935 5934 5933 5933 5932 5931 5930 5929 5928 5927 5926 5925 5924 5922 5921 5920 5918 5917 5916 5916 5915 5914 5913 5911 5910 5908 5906 5906 5905 5904 5903 5902 5900 5899 5898 5897 5896 5895
5934 5934 5934 5934 5934 5934 5933 5933 5932 5931 5931 5930 5929 5928 5927 5925 5924 5923 5922 5921 5919 5918 5917 5916 5915 5914 5914 5913 5911 5910 5908 5906 5905 5904 5903 5902 5901 5899 5898 5897 5895 5894 5893
5933 5933 5933 5933 5933 5933 5932 5931 5931 5930 5929 5928 5927 5926 5925 5924 5923 5922 5921 5920 5918 5917 5916 5915 5914 5913 5913 5912 5911 5909 5908 5905 5904 5902 5901 5901 5899 5898 5896 5895 5894 5892 5890
5931 5931 5932 5932 5931 5931 5930 5930 5929 5928 5927 5927 5926 5925 5924 5922 5921 5920 5919 5918 5917 5916 5915 5914 5913 5912 5911 5910 5909 5908 5907 5905 5903 5901 5900 5899 5898 5896 5895 5893 5891 5890 5888
5929 5929 5929 5929 5929 5929 5928 5927 5927 5926 5926 5925 5924 5923 5922 5921 5920 5919 5918 5916 5915 5915 5914 5913 5912 5911 5909 5908 5908 5907 5905 5904 5902 5900 5898 5897 5895 5894 5892 5891 5889 5888 5885
5927 5927 5927 5927 5927 5926 5925 5925 5924 5924 5923 5922 5922 5921 5920 5919 5918 5917 5916 5915 5914 5913 5912 5911 5910 5909 5908 5906 5905 5904 5903 5902 5899 5897 5896 5894 5892 5891 5889 5888 5886 5885 5883
5925 5924 5924 5924 5924 5923 5923 5922 5922 5921 5920 5920 5919 5918 5918 5917 5915 5914 5914 5913 5911 5910 5909 5908 5907 5906 5905 5904 5903 5902 5900 5899 5897 5895 5893 5891 5889 5887 5886 5884 5883 5881 5880
5921 5921 5921 5921 5921 5920 5920 5919 5919 5918 5917 5917 5916 5915 5915 5914 5913 5911 5911 5910 5909 5908 5906 5905 5905 5904 5903 5901 5900 5899 5898 5896 5895 5893 5891 5888 5886 5884 5882 5881 5879 5878 5876
5917 5918 5918 5918 5918 5917 5917 5916 5915 5915 5914 5913 5913 5912 5911 5910 5909 5908 5907 5906 5905 5904 5903 5902 5901 5901 5900 5898 5897 5896 5895 5893 5892 5890 5888 5885 5883 5881 5879 5877 5876 5875 5873
5913 5914 5914 5914 5913 5913 5912 5912 5911 5911 5910 5909 5909 5908 5907 5906 5905 5904 5903 5902 5901 5900 5899 5898 5897 5897 5896 5895 5894 5893 5891 5890 5889 5887 5884 5882 5880 5877 5875 5874 5872 5871 5869
5909 5909 5909 5909 5909 5908 5907 5907 5906 5906 5905 5904 5904 5903 5902 5901 5900 5899 5899 5898 5897 5896 5895 5894 5893 5893 5892 5891 5890 5889 5887 5886 5885 5883 5881 5878 5876 5874 5871 5870 5868 5867 5865
5904 5905 5905 5905 5904 5903 5902 5902 5901 5900 5899 5898 5897 5897 5896 5896 5895 5894 5893 5893 5892 5891 5890 5889 5889 5888 5888 5887 5886 5884 5883 5881 5880 5878 5876 5874 5872 5870 5867 5865 5864 5862 5860
5898 5899 5899 5899 5898 5897 5897 5897 5895 5894 5892 5891 5890 5890 5889 5889 5888 5887 5887 5886 5885 5885 5884 5884 5884 5883 5882 5881 5880 5879 5877 5876 5875 5873 5872 5870 5868 5865 5863 5861 5859 5858 5856
5892 5892 5892 5892 5892 5892 5891 5890 5888 5887 5885 5883 5882 5881 5881 5881 5881 5880 5880 5879 5879 5878 5878 5878 5878 5877 5877 5876 5875 5873 5872 5870 5869 5868 5867 5865 5864 5861 5859 5857 5855 5853 5851
5885 5885 5885 5885 5885 5885 5885 5884 5882 5880 5877 5876 5875 5874 5873 5873 5873 5873 5873 5873 5872 5871 5871 5870 5871 5870 5870 5870 5869 5868 5866 5866 5865 5864 5862 5861 5859 5857 5855 5852 5850 5848 5846
5877 5877 5878 5878 5878 5877 5877 5876 5875 5873 5872 5870 5869 5867 5866 5866 5866 5866 5865 5865 5865 5864 5864 5863 5863 5864 5864 5864 5863 5863 5862 5860 5858 5858 5857 5856 5854 5852 5850 5848 5846 5844 5841
5868 5869 5869 5869 5869 5869 5869 5868 5867 5866 5864 5863 5861 5860 5860 5859 5858 5858 5858 5858 5857 5857 5857 5856 5856 5856 5857 5857 5857 5857 5856 5855 5853 5852 5851 5850 5849 5847 5845 5843 5841 5839 5836
5860 5860 5860 5860 5860 5860 5859 5858 5858 5857 5856 5854 5853 5853 5852 5851 5850 5850 5850 5850 5850 5850 5849 5849 5849 5850 5850 5850 5851 5850 5850 5849 5848 5847 5845 5844 5843 5842 5840 5838 5836 5833 5831
5851 5851 5851 5851 5851 5850 5849 5849 5848 5848 5847 5846 5844 5843 5842 5842 5842 5841 5842 5842 5842 5842 5842 5842 5842 5842 5843 5843 5843 5844 5843 5843 5842 5841 5839 5837 5836 5835 5834 5832 5830 5828 5826